UTOFI Weather Reports


Display with metric or nautical units.
time (UTC)temp
F
wind
direction
speed
MPH
gust
MPH
rain 1hr
in
rain 24hr
in
rain mn
in
humidity
%
barometer
mb
20260906060129 57 318 4.0 6.0 0.00 0.07 0.00 78 1008.6
20260906054458 56 334 5.0 7.0 0.00 0.07 0.00 81 1008.4
20260906052459 56 339 5.0 7.0 0.00 0.07 0.00 80 1008.1
20260906050459 56 358 8.0 11.0 0.00 0.07 0.00 79 1007.9
20260906044130 56 356 11.0 13.0 0.00 0.07 0.00 78 1007.5
20260906042129 55 359 9.0 12.0 0.00 0.07 0.00 81 1007.5
20260906040129 55 356 10.0 13.0 0.00 0.07 0.00 78 1007.3
20260906034129 55 1 11.0 14.0 0.00 0.07 0.00 79 1007.0
20260906032457 55 356 12.0 15.0 0.00 0.07 0.00 78 1006.8
20260906030459 55 355 13.0 18.0 0.00 0.07 0.00 78 1006.6
20260906024459 55 357 13.0 18.0 0.00 0.07 0.00 77 1006.4
20260906022459 55 354 15.0 21.0 0.00 0.07 0.00 76 1006.3
20260906020459 55 358 18.0 24.0 0.00 0.07 0.00 75 1006.1
20260906014500 54 1 19.0 24.0 0.00 0.07 0.00 73 1005.9
20260906012457 55 2 20.0 25.0 0.00 0.07 0.00 70 1004.7
20260906010500 55 2 20.0 27.0 0.00 0.07 0.00 70 1005.3
20260906002128 55 2 20.0 25.0 0.00 0.07 0.00 70 1004.7
20260906000128 55 2 21.0 26.0 0.00 0.07 0.00 71 1004.6
20260905234458 55 358 19.0 26.0 0.00 0.07 0.00 77 1004.4
20260905232457 55 357 19.0 26.0 0.00 0.07 0.00 78 1004.1
20260905230457 56 358 19.0 26.0 0.00 0.07 0.00 79 1003.8
20260905224456 56 357 19.0 24.0 0.00 0.07 0.00 80 1003.5
20260905222457 56 357 18.0 24.0 0.00 0.07 0.00 81 1003.1
20260905220458 56 359 21.0 26.0 0.00 0.07 0.00 82 1002.9
20260905214458 57 356 18.0 25.0 0.00 0.07 0.00 82 1002.6
20260905212458 58 342 16.0 23.0 0.00 0.07 0.00 82 1002.4
20260905210455 58 341 17.0 23.0 0.00 0.07 0.00 84 1002.1
20260905204456 58 341 17.0 24.0 0.07 0.07 0.07 82 1001.9
20260905202457 58 344 16.0 21.0 0.07 0.07 0.07 85 1001.8
20260905200458 58 343 16.0 22.0 0.07 0.07 0.07 83 1001.6
20260905194127 58 345 14.0 21.0 0.00 0.00 0.00 86 1001.4
20260905192128 57 329 14.0 21.0 0.00 0.00 0.00 91 1001.3
20260905190127 59 326 13.0 17.0 0.00 0.00 0.00 76 1001.2
20260905184457 59 324 11.0 17.0 0.00 0.00 0.00 79 1001.1
20260905180454 59 320 13.0 17.0 0.00 0.00 0.00 79 1000.8
20260905174454 60 319 13.0 19.0 0.00 0.00 0.00 78 1000.6
20260905172455 60 318 12.0 17.0 0.00 0.00 0.00 77 1000.4
20260905170456 60 322 13.0 18.0 0.00 0.00 0.00 72 1000.2
20260905164457 60 321 13.0 19.0 0.00 0.00 0.00 74 1000.0
20260905162128 61 318 11.0 16.0 0.00 0.00 0.00 70 999.9
20260905160126 61 323 12.0 17.0 0.00 0.00 0.00 71 999.6
20260905154455 61 320 12.0 18.0 0.00 0.00 0.00 68 999.5
20260905152456 61 323 13.0 18.0 0.00 0.00 0.00 68 999.3
20260905150455 62 317 13.0 17.0 0.00 0.00 0.00 65 999.3
20260905144456 62 316 13.0 18.0 0.00 0.00 0.00 63 999.1
20260905142456 62 322 13.0 17.0 0.00 0.00 0.00 64 999.0
20260905140455 63 325 13.0 18.0 0.00 0.00 0.00 62 998.9
20260905134455 64 323 13.0 18.0 0.00 0.00 0.00 61 998.7
20260905132127 63 323 14.0 18.0 0.00 0.00 0.00 60 998.6
20260905130500 63 328 14.0 18.0 0.00 0.00 0.00 62 998.3
20260905124455 64 336 12.0 15.0 0.00 0.00 0.00 66 998.3
20260905122126 64 329 12.0 16.0 0.00 0.00 0.00 62 998.1
20260905114456 64 329 12.0 15.0 0.00 0.00 0.00 58 997.8
20260905112128 62 326 10.0 13.0 0.00 0.00 0.00 63 997.5
20260905104456 62 327 10.0 13.0 0.00 0.00 0.00 65 997.2
20260905102456 63 332 10.0 13.0 0.00 0.00 0.00 63 996.9
20260905100455 62 336 10.0 13.0 0.00 0.00 0.00 64 996.7
20260905094454 61 331 10.0 13.0 0.00 0.00 0.00 65 996.5
20260905092455 61 334 9.0 13.0 0.00 0.00 0.00 66 996.4
20260905090456 62 335 8.0 10.0 0.00 0.00 0.00 67 996.2
20260905082457 60 356 9.0 11.0 0.00 0.00 0.00 71 996.0
20260905080124 60 353 9.0 13.0 0.00 0.00 0.00 71 995.9
20260905074453 60 353 9.0 12.0 0.00 0.00 0.00 72 995.7
20260905072453 59 2 10.0 13.0 0.00 0.00 0.00 72 995.6
20260905070456 59 5 9.0 13.0 0.00 0.00 0.00 71 995.4
20260905062452 57 9 9.0 11.0 0.00 0.00 0.00 77 995.1
20260905060454 57 8 8.0 11.0 0.00 0.00 0.00 78 995.0